{"data":{"norad_id":59764,"intl_designator":"2024-091M","name":"STARLINK-11111 [DTC]","alt_names":[],"object_type":"PAYLOAD","status":"ACTIVE","operator":null,"country":"US","launch_date":"2024-05-14","launch_site_code":"AFWTR","launch_vehicle":null,"mission":null,"orbit_class":"UNKNOWN","rcs_meters":null,"size_class":null,"mass_kg":null,"dimensions":null,"purposes":["comms"],"wikipedia_slug":null,"has_3d_model":false,"image_url":null,"decayed_at":null,"tle_current":{"epoch":"2026-08-17T14:59:15.647424Z","epoch_age_seconds":3098209,"freshness":"OLD","line1":"1 59764U 24091M   26229.62448666  .16820535  12047-4  18436-2 0  9992","line2":"2 59764  53.1276 119.9463 0017751 229.2160 130.7347 16.35890984130960","mean_motion":16.35890984,"eccentricity":0.0017751,"inclination_deg":53.1276,"raan_deg":119.9463,"arg_perigee_deg":229.216,"mean_anomaly_deg":130.7347,"bstar":0.0018436,"rev_number":13096,"period_min":88.025425537769,"perigee_km":165.12033843722,"apogee_km":188.39151931331,"semimajor_km":6554.8929288753,"source":"CELESTRAK","updated_at":"2026-08-18T09:01:18.561658Z"}}}